CW1662 Weather Reports


Display with metric or nautical units.
time (UTC)temp
F
wind
direction
speed
MPH
gust
MPH
rain 1hr
in
rain 24hr
in
rain mn
in
humidity
%
barometer
mb
20200707032830 75 118 2.0 11.0 0.00 0.00 0.00 72 1017.5
20200707032350 76 53 3.0 11.0 0.00 0.00 0.00 71 1017.5
20200707031843 76 101 1.0 8.0 0.00 0.00 0.00 70 1017.6
20200707031342 76 360 2.0 10.0 0.00 0.00 0.00 70 1017.6
20200707030839 77 119 2.0 10.0 0.00 0.00 0.00 70 1017.6
20200707030338 77 40 3.0 7.0 0.00 0.00 0.00 69 1017.5
20200707025833 77 64 2.0 7.0 0.00 0.00 0.00 68 1017.4
20200707025333 77 75 3.0 8.0 0.00 0.00 0.00 67 1017.3
20200707024829 78 95 3.0 9.0 0.00 0.00 0.00 67 1017.2
20200707024346 78 139 1.0 9.0 0.00 0.00 0.00 67 1017.2
20200707023842 79 78 3.0 9.0 0.00 0.00 0.00 66 1017.1
20200707023339 79 110 1.0 9.0 0.00 0.00 0.00 65 1017.0
20200707022839 79 103 4.0 13.0 0.00 0.00 0.00 64 1016.9
20200707022339 80 119 5.0 14.0 0.00 0.00 0.00 63 1016.9
20200707021835 81 144 4.0 11.0 0.00 0.00 0.00 61 1016.8
20200707021335 81 148 3.0 8.0 0.00 0.00 0.00 59 1016.7
20200707020835 81 131 1.0 8.0 0.00 0.00 0.00 58 1016.5
20200707020330 81 107 4.0 8.0 0.00 0.00 0.00 58 1016.3
20200707015847 81 133 1.0 6.0 0.00 0.00 0.00 58 1016.1
20200707015343 80 105 3.0 8.0 0.00 0.00 0.00 58 1015.9
20200707014843 80 144 0.0 5.0 0.00 0.00 0.00 57 1015.9
20200707014339 80 90 1.0 5.0 0.00 0.00 0.00 58 1015.8
20200707013835 80 151 1.0 3.0 0.00 0.00 0.00 59 1015.3
20200707013332 80 188 0.0 1.0 0.00 0.00 0.00 58 1015.2
20200707012831 80 188 0.0 3.0 0.00 0.00 0.00 58 1015.2
20200707012348 80 188 0.0 3.0 0.00 0.00 0.00 58 1015.1
20200707011828 80 288 0.0 1.0 0.00 0.00 0.00 57 1014.9
20200707011327 80 286 0.0 1.0 0.00 0.00 0.00 56 1014.9
20200707010847 80 286 0.0 1.0 0.00 0.00 0.00 56 1014.8
20200707010345 80 286 0.0 1.0 0.00 0.00 0.00 56 1014.5
20200707005843 80 286 0.0 1.0 0.00 0.00 0.00 57 1014.3
20200707005343 80 286 0.0 2.0 0.00 0.00 0.00 57 1014.4
20200707004839 80 286 0.0 1.0 0.00 0.00 0.00 56 1014.3
20200707004335 80 286 0.0 1.0 0.00 0.00 0.00 56 1014.1
20200707003831 81 286 0.0 1.0 0.00 0.00 0.00 56 1014.0
20200707003331 81 286 0.0 1.0 0.00 0.00 0.00 56 1014.1
20200707002830 81 286 0.0 1.0 0.00 0.00 0.00 55 1014.0
20200707002327 81 286 0.0 1.0 0.00 0.00 0.00 55 1014.1
20200707001846 81 286 0.0 1.0 0.00 0.00 0.00 55 1014.0
20200707001343 82 286 0.0 2.0 0.00 0.00 0.00 54 1013.9
20200707000842 82 286 0.0 2.0 0.00 0.00 0.00 53 1014.0
20200707000342 82 286 0.0 6.0 0.00 0.00 0.00 54 1014.1
20200706235837 82 213 1.0 7.0 0.00 0.00 0.00 53 1014.0
20200706235334 83 213 1.0 7.0 0.00 0.00 0.00 53 1014.1
20200706234833 83 212 2.0 8.0 0.00 0.00 0.00 52 1014.0
20200706234332 83 202 4.0 9.0 0.00 0.00 0.00 53 1013.9
20200706233829 83 212 4.0 9.0 0.00 0.00 0.00 54 1013.9
20200706233328 83 208 2.0 9.0 0.00 0.00 0.00 54 1013.9
20200706232849 83 213 5.0 10.0 0.00 0.00 0.00 54 1013.8
20200706232344 83 229 3.0 11.0 0.00 0.00 0.00 54 1013.9
20200706231844 84 205 5.0 17.0 0.00 0.00 0.00 54 1014.0
20200706231344 85 196 12.0 17.0 0.00 0.00 0.00 52 1014.1
20200706230840 86 215 5.0 18.0 0.00 0.00 0.00 52 1014.1
20200706230336 87 208 9.0 20.0 0.00 0.00 0.00 49 1014.2
20200706225832 91 201 10.0 18.0 0.00 0.00 0.00 48 1014.1
20200706225332 93 217 6.0 12.0 0.00 0.00 0.00 44 1013.7
20200706224832 93 201 4.0 7.0 0.00 0.00 0.00 44 1013.5
20200706224328 94 201 4.0 7.0 0.00 0.00 0.00 43 1013.4
20200706223848 94 209 4.0 7.0 0.00 0.00 0.00 43 1013.4
20200706223344 94 209 4.0 7.0 0.00 0.00 0.00 42 1013.2
20200706222844 94 209 5.0 8.0 0.00 0.00 0.00 42 1013.2
20200706222343 95 204 4.0 9.0 0.00 0.00 0.00 41 1013.1
20200706221842 95 206 5.0 9.0 0.00 0.00 0.00 41 1013.1
20200706221340 95 198 3.0 8.0 0.00 0.00 0.00 42 1013.2
20200706220837 95 175 4.0 8.0 0.00 0.00 0.00 41 1013.2
20200706220336 96 240 0.0 5.0 0.00 0.00 0.00 41 1013.2
20200706215832 96 246 2.0 9.0 0.00 0.00 0.00 41 1013.2
20200706215349 95 212 4.0 9.0 0.00 0.00 0.00 42 1013.4
20200706214845 95 193 7.0 9.0 0.00 0.00 0.00 41 1013.5
20200706214341 95 196 1.0 8.0 0.00 0.00 0.00 42 1013.5
20200706213844 95 194 5.0 11.0 0.00 0.00 0.00 41 1013.5
20200706213343 95 180 4.0 11.0 0.00 0.00 0.00 42 1013.5
20200706212842 96 199 7.0 10.0 0.00 0.00 0.00 41 1013.6
20200706212339 96 209 3.0 9.0 0.00 0.00 0.00 42 1013.7
20200706211839 96 196 5.0 10.0 0.00 0.00 0.00 41 1013.8
20200706211338 96 213 4.0 11.0 0.00 0.00 0.00 40 1013.8
20200706210839 96 238 7.0 11.0 0.00 0.00 0.00 40 1013.8
20200706210335 96 198 5.0 9.0 0.00 0.00 0.00 40 1013.8
20200706205832 96 223 6.0 10.0 0.00 0.00 0.00 40 1013.9
20200706205332 96 220 4.0 10.0 0.00 0.00 0.00 41 1013.9
20200706204831 96 274 5.0 8.0 0.00 0.00 0.00 40 1013.8
20200706204328 96 268 2.0 12.0 0.00 0.00 0.00 40 1013.8
20200706203827 96 200 5.0 12.0 0.00 0.00 0.00 40 1013.8
20200706203331 96 196 1.0 10.0 0.00 0.00 0.00 40 1013.8
20200706202828 96 205 1.0 8.0 0.00 0.00 0.00 40 1013.8
20200706202328 96 226 1.0 9.0 0.00 0.00 0.00 41 1013.9
20200706201847 96 211 2.0 10.0 0.00 0.00 0.00 40 1013.9
20200706201344 96 199 3.0 10.0 0.00 0.00 0.00 40 1013.8
20200706200843 97 207 3.0 7.0 0.00 0.00 0.00 39 1013.9
20200706200343 97 244 3.0 7.0 0.00 0.00 0.00 40 1013.9
20200706195841 97 254 2.0 7.0 0.00 0.00 0.00 41 1013.9
20200706195337 96 245 1.0 7.0 0.00 0.00 0.00 41 1013.9
20200706194837 96 236 2.0 10.0 0.00 0.00 0.00 41 1014.0
20200706194337 96 196 5.0 10.0 0.00 0.00 0.00 40 1014.1
20200706193837 96 217 4.0 12.0 0.00 0.00 0.00 41 1014.0
20200706193333 96 185 8.0 12.0 0.00 0.00 0.00 40 1014.1
20200706192832 96 205 3.0 7.0 0.00 0.00 0.00 39 1014.1
20200706192332 97 211 2.0 7.0 0.00 0.00 0.00 39 1014.3
20200706191828 96 214 2.0 7.0 0.00 0.00 0.00 40 1014.3
20200706191328 96 255 1.0 10.0 0.00 0.00 0.00 40 1014.4
20200706190847 96 210 3.0 10.0 0.00 0.00 0.00 40 1014.5
20200706190343 96 215 1.0 7.0 0.00 0.00 0.00 42 1014.4
20200706185843 96 224 0.0 5.0 0.00 0.00 0.00 41 1014.5
20200706185342 96 266 0.0 5.0 0.00 0.00 0.00 41 1014.6
20200706184839 96 265 2.0 5.0 0.00 0.00 0.00 41 1014.7
20200706184334 96 255 1.0 6.0 0.00 0.00 0.00 43 1014.8
20200706183831 96 211 1.0 7.0 0.00 0.00 0.00 44 1014.8
20200706183327 95 204 4.0 7.0 0.00 0.00 0.00 44 1014.8
20200706182847 95 273 3.0 6.0 0.00 0.00 0.00 44 1014.9
20200706182344 95 297 2.0 5.0 0.00 0.00 0.00 45 1015.0
20200706181840 95 355 2.0 5.0 0.00 0.00 0.00 46 1015.1
20200706181341 94 213 0.0 6.0 0.00 0.00 0.00 46 1015.2
20200706180840 94 219 1.0 8.0 0.00 0.00 0.00 46 1015.3
20200706180340 94 273 3.0 8.0 0.00 0.00 0.00 45 1015.4
20200706175842 94 219 5.0 8.0 0.00 0.00 0.00 45 1015.5
20200706175339 94 191 2.0 5.0 0.00 0.00 0.00 45 1015.6
20200706174839 93 212 2.0 7.0 0.00 0.00 0.00 46 1015.7
20200706174339 93 210 3.0 8.0 0.00 0.00 0.00 46 1015.7
20200706173842 93 204 2.0 8.0 0.00 0.00 0.00 46 1015.9
20200706173343 93 210 4.0 8.0 0.00 0.00 0.00 46 1015.9
20200706172842 93 203 2.0 7.0 0.00 0.00 0.00 47 1016.0
20200706172340 92 200 2.0 7.0 0.00 0.00 0.00 47 1015.9
20200706171840 92 271 2.0 7.0 0.00 0.00 0.00 47 1016.0
20200706171339 92 210 3.0 7.0 0.00 0.00 0.00 47 1016.0
20200706170835 92 207 3.0 7.0 0.00 0.00 0.00 49 1016.0
20200706170340 92 209 4.0 8.0 0.00 0.00 0.00 48 1016.1
20200706165836 92 209 4.0 8.0 0.00 0.00 0.00 47 1016.2
20200706165339 92 216 3.0 7.0 0.00 0.00 0.00 49 1016.1
20200706164839 91 198 2.0 7.0 0.00 0.00 0.00 49 1016.2
20200706164339 92 208 5.0 8.0 0.00 0.00 0.00 49 1016.1
20200706163836 91 252 3.0 7.0 0.00 0.00 0.00 50 1016.2
20200706163333 91 241 3.0 7.0 0.00 0.00 0.00 50 1016.2
20200706162829 91 235 3.0 6.0 0.00 0.00 0.00 52 1016.2
20200706162329 91 278 2.0 7.0 0.00 0.00 0.00 51 1016.3
20200706161849 91 220 2.0 7.0 0.00 0.00 0.00 49 1016.3
20200706161345 90 218 2.0 8.0 0.00 0.00 0.00 51 1016.2
20200706160842 90 221 4.0 8.0 0.00 0.00 0.00 51 1016.3
20200706160339 90 220 3.0 7.0 0.00 0.00 0.00 51 1016.2
20200706155835 89 213 4.0 7.0 0.00 0.00 0.00 52 1016.3
20200706155335 89 223 1.0 6.0 0.00 0.00 0.00 52 1016.3
20200706154834 88 200 2.0 7.0 0.00 0.00 0.00 52 1016.3
20200706154331 88 209 4.0 7.0 0.00 0.00 0.00 53 1016.3
20200706153831 88 204 0.0 7.0 0.00 0.00 0.00 54 1016.3
20200706153331 88 217 2.0 6.0 0.00 0.00 0.00 53 1016.3
20200706152845 88 216 3.0 6.0 0.00 0.00 0.00 54 1016.3
20200706152341 87 306 2.0 5.0 0.00 0.00 0.00 54 1016.4
20200706151841 87 212 1.0 6.0 0.00 0.00 0.00 54 1016.4
20200706151337 87 212 3.0 6.0 0.00 0.00 0.00 55 1016.3
20200706150837 87 217 2.0 6.0 0.00 0.00 0.00 54 1016.4
20200706150332 87 258 1.0 5.0 0.00 0.00 0.00 54 1016.4
20200706145848 86 213 0.0 7.0 0.00 0.00 0.00 56 1016.4
20200706145345 86 211 2.0 7.0 0.00 0.00 0.00 55 1016.3
20200706144841 86 211 3.0 6.0 0.00 0.00 0.00 56 1016.3
20200706144340 85 205 1.0 9.0 0.00 0.00 0.00 56 1016.4
20200706143840 85 206 5.0 9.0 0.00 0.00 0.00 55 1016.4
20200706143336 86 207 5.0 7.0 0.00 0.00 0.00 55 1016.2
20200706142832 86 263 2.0 5.0 0.00 0.00 0.00 57 1016.2
20200706142329 85 204 3.0 7.0 0.00 0.00 0.00 57 1016.2
20200706141848 85 203 0.0 7.0 0.00 0.00 0.00 56 1016.2
20200706141345 85 207 3.0 5.0 0.00 0.00 0.00 57 1016.2
20200706140841 85 224 1.0 5.0 0.00 0.00 0.00 58 1016.2
20200706140337 84 254 1.0 5.0 0.00 0.00 0.00 58 1016.3
20200706135836 84 216 1.0 7.0 0.00 0.00 0.00 59 1016.3
20200706135332 84 215 3.0 7.0 0.00 0.00 0.00 57 1016.3
20200706134848 84 254 1.0 5.0 0.00 0.00 0.00 57 1016.3
20200706134344 84 207 1.0 6.0 0.00 0.00 0.00 58 1016.2
20200706133843 84 283 2.0 6.0 0.00 0.00 0.00 58 1016.3
20200706133344 83 306 1.0 4.0 0.00 0.00 0.00 59 1016.3
20200706132843 83 193 0.0 5.0 0.00 0.00 0.00 59 1016.3
20200706132343 83 192 1.0 5.0 0.00 0.00 0.00 60 1016.3
20200706131843 82 200 1.0 4.0 0.00 0.00 0.00 59 1016.3
20200706131343 82 200 1.0 4.0 0.00 0.00 0.00 60 1016.2
20200706130843 82 200 2.0 3.0 0.00 0.00 0.00 61 1016.2
20200706130339 81 200 1.0 3.0 0.00 0.00 0.00 61 1016.3
20200706125835 81 200 0.0 1.0 0.00 0.00 0.00 64 1016.3
20200706125334 80 200 0.0 5.0 0.00 0.00 0.00 64 1016.4
20200706124830 80 199 1.0 6.0 0.00 0.00 0.00 65 1016.5
20200706124329 79 198 0.0 6.0 0.00 0.00 0.00 67 1016.4
20200706123845 79 198 3.0 6.0 0.00 0.00 0.00 65 1016.4
20200706123341 79 184 0.0 5.0 0.00 0.00 0.00 67 1016.4
20200706122841 78 184 0.0 5.0 0.00 0.00 0.00 67 1016.3
20200706122337 78 205 1.0 5.0 0.00 0.00 0.00 68 1016.3
20200706121833 78 205 0.0 5.0 0.00 0.00 0.00 69 1016.2
20200706121335 77 205 1.0 4.0 0.00 0.00 0.00 70 1016.3
20200706120829 77 205 1.0 3.0 0.00 0.00 0.00 70 1016.2
20200706120329 77 205 0.0 4.0 0.00 0.00 0.00 71 1016.2
20200706115848 76 205 1.0 4.0 0.00 0.00 0.00 71 1016.3
20200706115344 76 205 0.0 4.0 0.00 0.00 0.00 72 1016.3
20200706114844 76 205 2.0 4.0 0.00 0.00 0.00 72 1016.1
20200706114344 75 205 0.0 3.0 0.00 0.00 0.00 73 1016.1
20200706113841 75 205 1.0 3.0 0.00 0.00 0.00 73 1016.1
20200706113338 75 205 0.0 3.0 0.00 0.00 0.00 74 1016.1
20200706112838 75 205 1.0 2.0 0.00 0.00 0.00 74 1016.1
20200706112337 74 205 0.0 1.0 0.00 0.00 0.00 77 1016.0
20200706111833 74 205 0.0 1.0 0.00 0.00 0.00 77 1015.9
20200706111333 73 205 0.0 1.0 0.00 0.00 0.00 78 1015.9
20200706110849 73 205 0.0 1.0 0.00 0.00 0.00 78 1015.9
20200706110329 73 205 0.0 0.0 0.00 0.00 0.00 79 1015.8
20200706105829 72 205 0.0 1.0 0.00 0.00 0.00 79 1015.7
20200706105348 72 205 0.0 1.0 0.00 0.00 0.00 80 1015.8
20200706104845 72 205 0.0 0.0 0.00 0.00 0.00 80 1015.8
20200706104345 72 205 0.0 0.0 0.00 0.00 0.00 80 1015.8
20200706103844 72 205 0.0 0.0 0.00 0.00 0.00 80 1015.9
20200706103340 72 205 0.0 0.0 0.00 0.00 0.00 80 1015.7
20200706102840 72 205 0.0 0.0 0.00 0.00 0.00 80 1015.5
20200706102340 72 205 0.0 0.0 0.00 0.00 0.00 79 1015.5
20200706101838 72 205 0.0 0.0 0.00 0.00 0.00 79 1015.5
20200706101333 72 205 0.0 0.0 0.00 0.00 0.00 79 1015.5
20200706100828 72 205 0.0 1.0 0.00 0.00 0.00 78 1015.5
20200706100329 72 205 0.0 2.0 0.00 0.00 0.00 78 1015.4
20200706095848 72 205 0.0 2.0 0.00 0.00 0.00 78 1015.3
20200706095343 72 205 0.0 2.0 0.00 0.00 0.00 78 1015.3
20200706094844 73 205 0.0 4.0 0.00 0.00 0.00 78 1015.2
20200706094344 73 205 1.0 5.0 0.00 0.00 0.00 78 1015.2
20200706093844 73 205 3.0 5.0 0.00 0.00 0.00 78 1015.1
20200706093343 72 205 2.0 3.0 0.00 0.00 0.00 78 1015.1
20200706092843 72 205 0.0 2.0 0.00 0.00 0.00 78 1015.0
20200706092339 72 205 0.0 1.0 0.00 0.00 0.00 78 1014.9
20200706091835 72 205 0.0 0.0 0.00 0.00 0.00 77 1014.9
20200706091332 72 205 0.0 0.0 0.00 0.00 0.00 77 1014.8
20200706090827 72 205 0.0 1.0 0.00 0.00 0.00 77 1014.9
20200706090348 72 205 0.0 2.0 0.00 0.00 0.00 77 1014.8
20200706085845 72 205 1.0 4.0 0.00 0.00 0.00 78 1014.8
20200706085341 72 205 0.0 2.0 0.00 0.00 0.00 78 1014.8
20200706084841 72 205 0.0 1.0 0.00 0.00 0.00 77 1014.7
20200706084341 72 205 0.0 0.0 0.00 0.00 0.00 77 1014.7
20200706083842 73 205 0.0 0.0 0.00 0.00 0.00 76 1014.7
20200706083342 73 205 0.0 0.0 0.00 0.00 0.00 75 1014.6
20200706082841 73 205 0.0 3.0 0.00 0.00 0.00 75 1014.5
20200706082336 74 205 1.0 4.0 0.00 0.00 0.00 76 1014.4
20200706081833 74 205 2.0 4.0 0.00 0.00 0.00 76 1014.3
20200706081330 74 205 0.0 0.0 0.00 0.00 0.00 76 1014.4
20200706080830 74 205 0.0 3.0 0.00 0.00 0.00 76 1014.2
20200706080330 74 205 0.0 4.0 0.00 0.00 0.00 76 1014.2
20200706075846 74 205 2.0 4.0 0.00 0.00 0.00 76 1014.2
20200706075343 73 205 1.0 3.0 0.00 0.00 0.00 77 1014.0
20200706074838 73 205 1.0 3.0 0.00 0.00 0.00 77 1014.0
20200706074335 73 205 0.0 1.0 0.00 0.00 0.00 77 1014.0
20200706073832 73 205 0.0 1.0 0.00 0.00 0.00 76 1014.1
20200706073348 73 205 0.0 1.0 0.00 0.00 0.00 76 1014.1
20200706072829 73 205 0.0 0.0 0.00 0.00 0.00 76 1014.2
20200706072345 73 205 0.0 0.0 0.00 0.00 0.00 75 1014.2
20200706071844 73 205 0.0 0.0 0.00 0.00 0.00 75 1014.2
20200706071344 73 205 0.0 0.0 0.00 0.00 0.00 74 1014.3
20200706070845 74 205 0.0 0.0 0.00 0.00 0.00 74 1014.3
20200706070344 74 205 0.0 1.0 0.00 0.00 0.00 73 1014.3
20200706065840 74 205 0.0 2.0 0.00 0.00 0.00 74 1014.2
20200706065337 74 205 0.0 2.0 0.00 0.00 0.00 73 1014.2
20200706064833 74 205 0.0 1.0 0.00 0.00 0.00 73 1014.1
20200706064330 74 205 0.0 0.0 0.00 0.00 0.00 73 1014.1
20200706063846 75 205 0.0 0.0 0.00 0.00 0.00 72 1014.1
20200706063342 75 205 0.0 0.0 0.00 0.00 0.00 72 1014.2
20200706062838 75 205 0.0 0.0 0.00 0.00 0.00 72 1014.3
20200706062335 75 205 0.0 0.0 0.00 0.00 0.00 72 1014.4
20200706061832 75 205 0.0 1.0 0.00 0.00 0.00 72 1014.4
20200706061331 75 205 0.0 1.0 0.00 0.00 0.00 72 1014.4
20200706060832 75 205 0.0 1.0 0.00 0.00 0.00 72 1014.6
20200706060349 75 205 0.0 0.0 0.00 0.00 0.00 71 1014.6
20200706055845 76 205 0.0 1.0 0.00 0.00 0.00 71 1014.6
20200706055345 76 205 0.0 1.0 0.00 0.00 0.00 71 1014.7
20200706054845 76 205 0.0 1.0 0.00 0.00 0.00 70 1014.8
20200706054344 76 205 0.0 1.0 0.00 0.00 0.00 70 1014.9
20200706053843 76 205 0.0 1.0 0.00 0.00 0.00 70 1014.9
20200706053340 76 205 0.0 1.0 0.00 0.00 0.00 70 1015.0
20200706052836 76 205 0.0 0.0 0.00 0.00 0.00 70 1015.0
20200706052336 77 205 0.0 2.0 0.00 0.00 0.00 70 1015.0
20200706051835 77 205 0.0 1.0 0.00 0.00 0.00 69 1015.0
20200706051332 77 205 0.0 1.0 0.00 0.00 0.00 69 1015.0
20200706050832 77 205 0.0 0.0 0.00 0.00 0.00 69 1015.0
20200706050336 78 205 0.0 0.0 0.00 0.00 0.00 68 1015.1
20200706045831 78 205 0.0 0.0 0.00 0.00 0.00 68 1015.1
20200706045348 78 205 0.0 0.0 0.00 0.00 0.00 68 1015.1
20200706044844 78 205 0.0 2.0 0.00 0.00 0.00 67 1015.1
20200706044344 79 205 0.0 2.0 0.00 0.00 0.00 67 1015.1
20200706043844 79 205 0.0 1.0 0.00 0.00 0.00 67 1015.1
20200706043340 79 205 0.0 1.0 0.00 0.00 0.00 66 1015.2
20200706042837 79 205 0.0 1.0 0.00 0.00 0.00 66 1015.2
20200706042333 79 205 0.0 5.0 0.00 0.00 0.00 66 1015.1
20200706041829 80 205 1.0 5.0 0.00 0.00 0.00 66 1015.0
20200706041348 80 205 3.0 5.0 0.00 0.00 0.00 66 1015.0
20200706040843 80 194 1.0 5.0 0.00 0.00 0.00 65 1015.0
20200706040344 80 194 3.0 5.0 0.00 0.00 0.00 65 1014.9
20200706035840 80 194 1.0 6.0 0.00 0.00 0.00 65 1014.8
20200706035339 81 194 0.0 6.0 0.00 0.00 0.00 65 1014.8
20200706034840 81 198 1.0 7.0 0.00 0.00 0.00 64 1014.7
20200706034339 81 196 4.0 7.0 0.00 0.00 0.00 64 1014.7
20200706033834 81 198 3.0 7.0 0.00 0.00 0.00 64 1014.5
20200706033330 81 195 4.0 8.0 0.00 0.00 0.00 64 1014.4